Tracking 35048 objects as of 19-Aug-2026
HD Live streaming from Space Station
objects crossing your sky now

STARLINK-1202

Track STARLINK-1202 now!
10-day predictions
STARLINK-1202 is classified as:


NORAD ID: 45183
Int'l Code: 2020-012F
Launch date: February 17, 2020
Source: United States (US)
Launch site: AIR FORCE EASTERN TEST RANGE (AFETR)
Your satellite tracking list
Your tracking list is empty




NASA's NSSDC Master Catalog

Two Line Element Set (TLE):
1 45183U 20012F   26231.08455675  .00039562  00000-0  96287-3 0  9990
2 45183  53.1550   0.1763 0002030 112.6505 247.4715 15.40583851359887
Source of the keplerian elements: AFSPC